This demonstration page uses our WeatherBlox Daily Observations layout. Learn more.

Left ArrowRight Arrow

41.86663, -103.66717

Hourly Observations for July 27, 2021

Temp ( °F °C ) Dew Point ( °F °C ) Humidity (%) Winds ( mph kmh ) Pressure ( in mb ) Visibility ( mi km ) Precip ( " mm )
12:53 am 00:53 Clear 72 22.2 59 15 64 64 E 7 11 29.91 1013 10 16 0.00 0.00
1:53 am 01:53 Clear 69 20.6 59 15 70 70 E 8 13 29.92 1013 10 16 0.00 0.00
2:53 am 02:53 Clear 68 20 59 15 73 73 E 7 11 29.92 1013 10 16 0.00 0.00
3:53 am 03:53 Clear 69 20.6 59 15 70 70 E 5 7 29.91 1013 10 16 0.00 0.00
4:53 am 04:53 Clear 65 18.3 58 14.4 78 78 E 3 6 29.92 1013 10 16 0.00 0.00
5:53 am 05:53 Sunny 63 17.2 58 14.4 84 84 NNW 5 7 29.94 1014 10 16 0.00 0.00
6:53 am 06:53 Sunny 66 18.9 59 15 78 78 ESE 5 7 29.95 1014 10 16 0.00 0.00
7:53 am 07:53 Sunny 71 21.7 61 16.1 71 71 ESE 6 9 29.97 1015 10 16 0.00 0.00
8:53 am 08:53 Sunny 77 25 62 16.7 60 60 SSE 8 13 29.97 1015 10 16 0.00 0.00
9:53 am 09:53 Sunny 82 27.8 63 17.2 53 53 ESE 8 13 29.96 1015 10 16 0.00 0.00
10:53 am 10:53 Sunny 89 31.7 62 16.7 41 41 E 9 15 29.95 1014 10 16 0.00 0.00
11:53 am 11:53 Sunny 95 35 51 10.6 23 23 SSE 14 22 29.93 1014 10 16 0.00 0.00
12:53 pm 12:53 Sunny 97 36.1 52 11.1 22 22 SE 13 20 29.91 1013 10 16 0.00 0.00
1:53 pm 13:53 Sunny 100 37.8 43 6.1 14 14 SSE 15 24 29.90 1012 10 16 0.00 0.00
2:53 pm 14:53 Sunny 100 37.8 44 6.7 15 15 SE 13 20 29.90 1012 10 16 0.00 0.00
3:53 pm 15:53 Sunny 101 38.3 44 6.7 14 14 SSE 14 22 29.88 1012 10 16 0.00 0.00
4:53 pm 16:53 Sunny 101 38.3 45 7.2 15 15 SE 14 22 29.88 1012 10 16 0.00 0.00
5:53 pm 17:53 Sunny 98 36.7 47 8.3 17 17 SE 15 24 29.87 1012 10 16 0.00 0.00
6:53 pm 18:53 Sunny 93 33.9 51 10.6 24 24 SE 12 19 29.88 1012 10 16 0.00 0.00
7:53 pm 19:53 Sunny 84 28.9 56 13.3 38 38 ESE 8 13 29.89 1012 10 16 0.00 0.00
8:53 pm 20:53 Clear 78 25.6 57 13.9 48 48 ESE 8 13 29.91 1013 10 16 0.00 0.00
9:53 pm 21:53 Clear 76 24.4 56 13.3 50 50 ESE 10 17 29.93 1014 10 16 0.00 0.00
10:53 pm 22:53 Clear 73 22.8 57 13.9 57 57 ESE 9 15 29.93 1013 10 16 0.00 0.00
11:53 pm 23:53 Clear 71 21.7 57 13.9 61 61 E 7 11 29.92 1013 10 16 0.00 0.00

Powered by AerisWeather